Flag for Germany Weather past 2 weeks in Mayen, Rhineland-Palatinate, Germany

Now
75 °F

Mild.


Feels Like: 78 °F
Forecast: 59 / 73 °F
Wind: 6 mph from Southeast

Location: Buechel

Current Time: Aug 3, 2015 at 10:53:49 AM

Latest Report: Aug 3, 2015 at 10:20 AM


Visibility: N/A

Pressure: 30.07 "Hg

Humidity: 41%

Dew point: 50 °F

Location of MayenLocation

Historic Weather in Mayen — Graph

°F

Mayen temperature yesterday

Maximum temperature yesterday: 79 °F (at 6:20 PM)
Minimum temperature yesterday: 55 °F (at 5:20 AM)
Average temperature yesterday: 68 °F

Past Weeks' High & Low Weather Summary

 TemperatureHumidityPressure
High82 °F (Jul 21, 5:20 PM)100% (Jul 19, 9:20 AM)30.15 "Hg (Jul 19, 9:20 AM)
Low45 °F (Jul 30, 3:20 AM)29% (Aug 1, 4:20 PM)29.62 "Hg (Jul 27, 4:20 AM)
Average61 °F70%29.94 "Hg
* Reported Jul 19 9:20 AM — Aug 3 9:20 AM, Mayen, Weather by CustomWeather, © 2015

Note: Actual official high and low records may vary slightly from our data, if they occured in-between our weather recording intervals... More about our weather records

Advertising

Mayen weather history for previous 24 hours

 ConditionsComfort  
Time TempWeatherWind HumidityBarometerVisibility
9:20 AM
Mon, Aug 3
72 °FMild.5 mph47%30.07 "HgN/A
8:20 AM70 °FMild.5 mph46%30.07 "HgN/A
7:20 AM66 °FMild.5 mph49%30.07 "HgN/A
6:20 AM64 °FMild.6 mph49%30.07 "HgN/A
5:20 AM64 °FMild.6 mph49%30.07 "HgN/A
4:20 AM66 °FMild.5 mph46%30.07 "HgN/A
3:20 AM68 °FMild.5 mph43%30.07 "HgN/A
2:20 AM68 °FMild.5 mph43%30.07 "HgN/A
1:20 AM68 °FMild.6 mph43%30.07 "HgN/A
12:20 AM68 °FMild.3 mph40%30.09 "HgN/A
11:20 PM
Sun, Aug 2
70 °FMild.5 mph38%30.09 "HgN/A
10:20 PM70 °FMild.5 mph38%30.09 "HgN/A
9:20 PM72 °FMild.6 mph38%30.07 "HgN/A
8:20 PM75 °FMild.7 mph34%30.07 "HgN/A
7:20 PM77 °FPleasantly warm.8 mph30%30.09 "HgN/A
6:20 PM79 °FPleasantly warm.7 mph32%30.09 "HgN/A
5:20 PM77 °FPleasantly warm.7 mph34%30.09 "HgN/A
4:20 PM77 °FPleasantly warm.6 mph34%30.12 "HgN/A
3:20 PM77 °FPleasantly warm.6 mph34%30.12 "HgN/A
2:20 PM75 °FMild.5 mph34%30.15 "HgN/A
1:20 PM73 °FMild.6 mph38%30.15 "HgN/A
12:20 PM72 °FMild.6 mph41%30.15 "HgN/A
11:20 AM70 °FMild.8 mph43%30.15 "HgN/A
10:20 AM68 °FMild.9 mph46%30.15 "HgN/A
Weather by CustomWeather, © 2015

See weather overviewHow to use our weather pages